Ionia, MI

4:22 PM EDT on May 22, 2017 (GMT -0400)
Ionia

Weather History for KY70 - September, 2013

Change the Weather History Date:

Wednesday, September 11, 2013

  Actual Average (KGRR) Record (KGRR)
Temperature  
Mean Temperature 78 °F -  
Max Temperature 87 °F 75 °F 94 °F (1931)
Min Temperature 68 °F 53 °F 32 °F (1943)
Cooling Degree Days 12    
Growing Degree Days 28 (Base 50)    
Moisture  
Dew Point 66 °F    
Average Humidity 68    
Maximum Humidity 91    
Minimum Humidity 46    
Precipitation  
Precipitation 0.00 in - - ()
Sea Level Pressure  
Sea Level Pressure 30.00 in    
Wind  
Wind Speed 8 mph (WSW)    
Max Wind Speed 17 mph    
Max Gust Speed 23 mph    
Visibility 10 miles    
Events Rain    
Averages and records for this station are not official NWS values.
T = Trace of Precipitation, MM = Missing Value Source: NWS Daily Summary

Daily Weather History Graph

Daily Weather History Graph

Search for Another Location

Airport or City:

Trip Planner

Search our weather history database for the weather conditions in past years. The results will help you decide how hot, cold, wet, or windy it might be!

Date:

Astronomy

Sep. 11, 2013 Rise Set
Actual Time 7:15 AM EDT 7:56 PM EDT
Civil Twilight 6:47 AM EDT 8:25 PM EDT
Nautical Twilight 6:13 AM EDT 8:59 PM EDT
Astronomical Twilight 5:38 AM EDT 9:34 PM EDT
Moon 1:52 PM EDT (9/11) 11:42 PM EDT (9/11)
Length of Visible Light 13h 38m
Length of Day
12h 41m
Waxing Crescent, 38% of the Moon is Illuminated
Sep 11
Waxing Crescent
Sep 12
First Quarter
Sep 19
Full
Sep 26
Last Quarter
Oct 4
New

Hourly Weather History & Observations

Time (EDT) Temp. Heat Index Dew Point Humidity Pressure Visibility Wind Dir Wind Speed Gust Speed Precip Events Conditions
12:14 AM 77.7 °F - 64.0 °F 63% 29.99 in 10.0 mi SSW 9.2 mph - N/A   Clear
12:34 AM 77.2 °F - 63.9 °F 63% 29.98 in 10.0 mi SW 9.2 mph - N/A   Clear
12:54 AM 76.8 °F - 64.0 °F 65% 29.98 in 10.0 mi SW 9.2 mph - N/A   Clear
1:14 AM 77.2 °F - 64.4 °F 65% 29.98 in 10.0 mi SW 5.8 mph - N/A   Clear
1:34 AM 77.0 °F - 64.4 °F 65% 29.98 in 10.0 mi SW 5.8 mph - N/A   Clear
1:54 AM 75.2 °F - 64.4 °F 69% 29.99 in 10.0 mi SSW 6.9 mph - N/A   Clear
2:14 AM 75.7 °F - 64.4 °F 68% 29.99 in 10.0 mi SW 10.4 mph - N/A   Clear
2:34 AM 75.2 °F - 64.4 °F 69% 29.99 in 10.0 mi SSW 9.2 mph - N/A   Clear
2:54 AM 75.2 °F - 64.4 °F 69% 29.99 in 10.0 mi SW 10.4 mph - N/A   Clear
3:12 AM 74.7 °F - 64.6 °F 71% 29.99 in 10.0 mi SSW 8.1 mph - N/A   Clear
3:34 AM 74.3 °F - 64.6 °F 72% 29.99 in 10.0 mi SW 9.2 mph - N/A   Clear
3:54 AM 73.9 °F - 64.6 °F 72% 29.99 in 10.0 mi SW 8.1 mph - N/A   Clear
4:14 AM 74.3 °F - 64.6 °F 72% 29.99 in 10.0 mi SW 9.2 mph - N/A   Clear
4:34 AM 74.7 °F - 64.6 °F 71% 29.99 in 10.0 mi SW 8.1 mph - N/A   Scattered Clouds
4:54 AM 75.6 °F - 65.3 °F 70% 29.99 in 10.0 mi SW 6.9 mph - N/A   Mostly Cloudy
5:14 AM 74.7 °F - 65.3 °F 73% 29.99 in 10.0 mi WSW 6.9 mph - N/A   Scattered Clouds
5:34 AM 75.2 °F - 65.8 °F 73% 29.99 in 10.0 mi WSW 6.9 mph - N/A   Clear
5:54 AM 75.0 °F - 66.2 °F 74% 29.99 in 10.0 mi SW 6.9 mph - N/A   Clear
6:14 AM 74.8 °F - 66.2 °F 74% 29.99 in 10.0 mi SW 8.1 mph - N/A   Clear
6:34 AM 74.3 °F - 66.4 °F 76% 29.99 in 10.0 mi West 6.9 mph - N/A   Scattered Clouds
6:54 AM 73.8 °F - 66.4 °F 78% 30.00 in 10.0 mi WSW 6.9 mph - N/A   Mostly Cloudy
7:14 AM 73.8 °F - 66.6 °F 78% 30.00 in 10.0 mi WSW 6.9 mph - N/A   Mostly Cloudy
7:34 AM 73.6 °F - 66.6 °F 79% 30.01 in 10.0 mi WSW 8.1 mph - N/A   Mostly Cloudy
7:54 AM 74.3 °F - 67.1 °F 78% 30.01 in 10.0 mi SW 9.2 mph - N/A   Scattered Clouds
8:14 AM 75.0 °F - 67.5 °F 77% 30.02 in 10.0 mi West 6.9 mph - N/A   Clear
8:34 AM 75.9 °F - 68.0 °F 76% 30.02 in 10.0 mi WSW 6.9 mph - N/A   Clear
8:54 AM 76.3 °F - 68.0 °F 75% 30.02 in 10.0 mi WSW 9.2 mph - N/A   Clear
9:14 AM 77.5 °F - 68.2 °F 73% 30.03 in 10.0 mi West 11.5 mph - N/A   Clear
9:34 AM 78.6 °F - 68.5 °F 71% 30.02 in 10.0 mi WSW 11.5 mph - N/A   Scattered Clouds
9:54 AM 79.5 °F - 68.7 °F 69% 30.03 in 10.0 mi West 11.5 mph - N/A   Scattered Clouds
10:14 AM 80.2 °F 83.2 °F 69.1 °F 69% 30.03 in 10.0 mi West 9.2 mph - N/A   Clear
10:34 AM 80.4 °F 83.4 °F 68.9 °F 68% 30.03 in 10.0 mi West 9.2 mph - N/A   Clear
10:54 AM 82.0 °F 85.5 °F 69.3 °F 65% 30.05 in 10.0 mi WNW 13.8 mph 21.9 mph N/A   Scattered Clouds
11:14 AM 81.1 °F 84.5 °F 69.8 °F 68% 30.04 in 10.0 mi WNW 12.7 mph 16.1 mph N/A   Mostly Cloudy
11:34 AM 81.0 °F 84.1 °F 68.9 °F 67% 30.04 in 10.0 mi WNW 8.1 mph - N/A   Scattered Clouds
11:54 AM 82.2 °F 85.1 °F 68.2 °F 62% 30.03 in 10.0 mi West 4.6 mph - N/A   Scattered Clouds
12:14 PM 83.3 °F 86.4 °F 68.0 °F 60% 30.02 in 10.0 mi WSW 4.6 mph - N/A   Scattered Clouds
12:34 PM 83.3 °F 85.7 °F 66.4 °F 57% 30.01 in 10.0 mi WSW 5.8 mph - N/A   Clear
12:54 PM 83.3 °F 85.3 °F 65.8 °F 55% 30.00 in 10.0 mi SSW 9.2 mph - N/A   Clear
1:14 PM 83.5 °F 85.5 °F 65.8 °F 55% 30.00 in 10.0 mi WSW 5.8 mph - N/A   Clear
1:34 PM 86.2 °F 89.1 °F 67.5 °F 53% 30.01 in 10.0 mi WNW 10.4 mph - N/A   Clear
1:54 PM 85.8 °F 88.8 °F 67.3 °F 54% 30.01 in 10.0 mi West 6.9 mph - N/A   Clear
2:14 PM 85.1 °F 88.2 °F 67.6 °F 56% 30.00 in 10.0 mi WSW 6.9 mph - N/A   Clear
2:34 PM 85.6 °F 88.5 °F 67.5 °F 54% 30.00 in 10.0 mi WSW 9.2 mph - N/A   Clear
2:54 PM 87.8 °F 90.4 °F 66.7 °F 49% 29.99 in 10.0 mi West 10.4 mph - N/A   Scattered Clouds
3:14 PM 87.8 °F 89.4 °F 64.9 °F 46% 29.99 in 10.0 mi West 13.8 mph 20.7 mph N/A   Scattered Clouds
3:34 PM 85.6 °F 86.6 °F 63.5 °F 47% 29.99 in 10.0 mi West 12.7 mph 17.3 mph N/A   Scattered Clouds
3:54 PM 84.7 °F 85.9 °F 63.7 °F 49% 29.99 in 10.0 mi West 9.2 mph - N/A   Mostly Cloudy
4:14 PM 84.2 °F 85.6 °F 64.0 °F 51% 29.99 in 10.0 mi WNW 12.7 mph - N/A   Scattered Clouds
4:34 PM 83.7 °F 84.3 °F 62.2 °F 48% 29.99 in 10.0 mi WNW 17.3 mph 20.7 mph N/A   Scattered Clouds
4:54 PM 81.7 °F 82.9 °F 63.1 °F 53% 29.99 in 10.0 mi WNW 15.0 mph 23.0 mph N/A Rain Light Rain
5:14 PM 80.4 °F 81.7 °F 62.8 °F 55% 30.00 in 10.0 mi West 10.4 mph - N/A   Mostly Cloudy
5:34 PM 79.2 °F - 62.4 °F 56% 29.99 in 10.0 mi West 11.5 mph 19.6 mph N/A   Mostly Cloudy
5:54 PM 77.0 °F - 64.2 °F 65% 29.98 in 10.0 mi West 8.1 mph - N/A Rain Light Rain
6:14 PM 78.1 °F - 64.4 °F 63% 29.98 in 10.0 mi WNW 8.1 mph - N/A   Scattered Clouds
6:34 PM 77.9 °F - 64.2 °F 63% 29.98 in 10.0 mi WNW 6.9 mph - N/A   Clear
6:54 PM 77.2 °F - 63.7 °F 63% 29.99 in 10.0 mi WNW 9.2 mph - N/A   Clear
7:14 PM 76.1 °F - 64.2 °F 67% 29.99 in 10.0 mi West 6.9 mph - N/A   Clear
7:34 PM 75.2 °F - 63.9 °F 68% 29.98 in 10.0 mi WNW 5.8 mph - N/A   Clear
7:54 PM 74.5 °F - 64.0 °F 70% 29.98 in 10.0 mi West 4.6 mph - N/A   Clear
8:14 PM 74.1 °F - 63.9 °F 70% 29.98 in 10.0 mi West 4.6 mph - N/A   Clear
8:34 PM 72.7 °F - 64.4 °F 75% 29.98 in 10.0 mi West 3.5 mph - N/A   Scattered Clouds
8:54 PM 71.8 °F - 64.4 °F 77% 29.98 in 10.0 mi WSW 4.6 mph - N/A   Scattered Clouds
9:14 PM 70.3 °F - 64.4 °F 81% 29.99 in 10.0 mi SW 5.8 mph - N/A   Clear
9:34 PM 70.3 °F - 64.4 °F 81% 29.99 in 10.0 mi SW 4.6 mph - N/A   Clear
9:54 PM 69.8 °F - 64.4 °F 83% 29.99 in 10.0 mi WSW 4.6 mph - N/A   Scattered Clouds
10:14 PM 68.9 °F - 64.4 °F 86% 29.99 in 10.0 mi WSW 3.5 mph - N/A   Scattered Clouds
10:34 PM 69.3 °F - 65.3 °F 87% 29.98 in 10.0 mi SW 3.5 mph - N/A   Clear
10:54 PM 69.4 °F - 66.2 °F 89% 29.98 in 10.0 mi WSW 4.6 mph - N/A   Clear
11:14 PM 69.1 °F - 66.2 °F 91% 29.97 in 10.0 mi WSW 3.5 mph - N/A   Scattered Clouds
11:34 PM 68.9 °F - 66.0 °F 90% 29.98 in 10.0 mi Calm Calm - N/A   Scattered Clouds
11:54 PM 68.9 °F - 66.2 °F 91% 29.97 in 10.0 mi SSW 3.5 mph - N/A   Scattered Clouds